Location: Middelsbur
(53.6609°N, 7.5020°E)
Time: 13:11:42
(UTC+00:00)

SL-16 R/B - Pass Details

Date: 06 July 2020
Orbit: 839 x 850 km, 71.0° (Epoch: 07 August)

Event Time Altitude Azimuth Distance (km) Brightness Sun altitude
Exits shadow 22:46:38 18° 181° (S) 1,973 3.5 -13.1°
Maximum altitude 22:50:41 50° 112° (ESE) 1,075 2.5 -13.2°
Drops below altitude 10° 22:56:09 10° 39° (NE) 2,484 5.2 -13.3°
Sets 22:58:41 0° 35° (NE) 3,425 6.1 -13.4°
